DECAYED
Showing default

LEMUR 2 RAMONAMAE, 51021 (Decayed)

Orbit data source: Space-Track

LEMUR 2 RAMONAMAE, 51021 was an American payload satellite in LEO that was launched on Thu, 13 Jan 2022 UTC via an FALCON 9 launch vehicle from the Air Force Eastern Test Range (AFETR). Payload-class satellites include a variety of spacecraft equipped with specific instruments for various scientific and technological missions. These include communications satellites like Starlink; space stations such as the ISS; scientific satellites like the Hubble; Earth observation satellites from companies like Planet Labs, Umbra, and HawkEye 360; GPS; miniature CubeSats for education and research; and military/defense satellites.

Not visible in the next 10 days
Identifier
51021, 2022-002AP
Orbit
Decayed
Last TLE update
1 year ago
Origin
Manufacturer
Spire/Glasgow
Mission
Decayed Commercial Com/MetRO
Bus & Motor
CUBESAT 3U, Unknown motor
Mass
4.6 kg wet, 4.6 kg dry
Launch date (UTC)
2022-01-13 (3 years ago)
Launch vehicle
FALCON 9
Launch site
Air Force Eastern Test Range (AFETR)
Object type
Payload
Rocket body
Debris
Shape & HBR
Box + 2 Pan, 0.8 m
Radar Cross Section
0.077 m², Small (<0.1 m²)

Expand to show TLE details & history

TLE from 1 year ago
0 LEMUR 2 RAMONAMAE
1 51021U 22002AP  24150.09260637  .09842555  25473-5  37929-3 0  9997
2 51021  97.3749 233.9668 0015372 267.9703  91.9837 16.42409109132581
Epoch: 2024-05-29T02:13Z
TLE epoch observation values (Epoch: 2024-05-29T02:13:21.19Z)
Latitude
-0.00005°
Longitude
-46.47685°
Altitude
163.02 km
Speed
7.808 km/s
True Right ascension
15h 35m 52s
True Declination
0° 00' 00"
Sunlit
Object was in full shadow at epoch
Visualization orbit readout
Visualization observer readout
Orbital elements
Apogee altitude
166.25 km
Perigee altitude
146.161 km
Semi-major axis
6,534.342 km
Eccentricity
0.00154
Inclination
97.3749°
RAAN
233.9668°
Arg. of periapsis
267.9703°
True anomaly
Unknown
Mean anomaly
91.9837°
Eccentric anomaly
Unknown
Mean motion
4.10904 °/min
Orbital period
87.61 mins
BSTAR
0.00037929
Loading maneuver chart data...
Loading SW <> Apogee altitude chart data...

LEMUR 2 RAMONAMAE Visibility

Observer location: undefined°, undefined°

This satellite is decayed
Span
Click to sort rows by Start time (UTC) header in descending order
Start Az.
Max El. time (UTC)
Max El. Az.
Max El.
End time (UTC)
End Az.
|